Time,TemperatureF,DewpointF,PressureIn,WindDirection,WindDirectionDegrees,WindSpeedMPH,WindSpeedGustMPH,Humidity,HourlyPrecipIn,Conditions,Clouds,dailyrainin,SolarRadiationWatts/m^2,SoftwareType,DateUTC
2014-12-25 09:19:00,68.7,64.9,30.15,North,0,8.0,-999.0,88,-99.99,,,0.00,72.0,meteohub,2014-12-25 14:19:00,
2014-12-25 09:24:00,68.7,64.9,30.14,North,0,8.0,-999.0,88,-99.99,,,0.00,95.0,meteohub,2014-12-25 14:24:00,
2014-12-25 09:29:00,68.7,64.9,30.15,North,0,6.0,10.0,88,0.00,,,0.00,60.0,meteohub,2014-12-25 14:29:00,
2014-12-25 09:34:00,68.7,65.3,30.15,North,0,9.0,12.0,89,0.00,,,0.00,54.0,meteohub,2014-12-25 14:34:00,
2014-12-25 09:39:00,68.5,64.8,30.16,North,0,7.0,12.0,88,0.00,,,0.00,54.0,meteohub,2014-12-25 14:39:00,
2014-12-25 09:44:00,68.5,65.1,30.15,North,0,5.0,12.0,89,0.00,,,0.00,40.0,meteohub,2014-12-25 14:44:00,
2014-12-25 09:49:00,68.5,65.1,30.15,North,0,7.0,12.0,89,0.00,,,0.00,53.0,meteohub,2014-12-25 14:49:00,
2014-12-25 09:55:00,68.5,65.1,30.15,North,0,10.0,12.0,89,0.00,,,0.00,74.0,meteohub,2014-12-25 14:55:00,
2014-12-25 10:00:00,68.4,64.6,30.15,North,0,7.0,12.0,88,0.00,,,0.00,91.0,meteohub,2014-12-25 15:00:00,
2014-12-25 10:05:00,68.4,64.9,30.16,North,0,9.0,15.0,89,0.00,,,0.00,83.0,meteohub,2014-12-25 15:05:00,
2014-12-25 10:10:00,68.2,64.4,30.16,North,0,11.0,15.0,88,0.00,,,0.00,95.0,meteohub,2014-12-25 15:10:00,
2014-12-25 10:15:00,68.2,64.2,30.16,North,0,7.0,15.0,87,0.00,,,0.00,104.0,meteohub,2014-12-25 15:15:00,
2014-12-25 10:20:00,68.2,64.2,30.16,North,0,9.0,13.0,87,0.00,,,0.00,125.0,meteohub,2014-12-25 15:20:00,
2014-12-25 10:25:00,68.2,63.9,30.17,North,0,8.0,13.0,86,0.00,,,0.00,113.0,meteohub,2014-12-25 15:25:00,
2014-12-25 10:30:00,68.2,63.5,30.17,North,0,10.0,13.0,85,0.00,,,0.00,141.0,meteohub,2014-12-25 15:30:00,
2014-12-25 10:35:00,68.2,63.5,30.17,North,0,11.0,15.0,85,0.00,,,0.00,146.0,meteohub,2014-12-25 15:35:00,
2014-12-25 10:40:00,68.2,63.5,30.17,North,0,11.0,17.0,85,0.00,,,0.00,132.0,meteohub,2014-12-25 15:40:00,
2014-12-25 10:45:00,68.0,63.3,30.17,North,0,8.0,17.0,85,0.00,,,0.00,125.0,meteohub,2014-12-25 15:45:00,
2014-12-25 10:50:00,68.0,63.0,30.17,North,0,8.0,17.0,84,0.00,,,0.00,113.0,meteohub,2014-12-25 15:50:00,
2014-12-25 10:55:00,67.8,63.1,30.17,North,0,4.0,16.0,85,0.00,,,0.00,105.0,meteohub,2014-12-25 15:55:00,
2014-12-25 11:00:00,68.0,63.3,30.17,North,0,8.0,16.0,85,0.00,,,0.00,100.0,meteohub,2014-12-25 16:00:00,
2014-12-25 11:05:00,67.8,63.1,30.17,North,0,7.0,16.0,85,0.00,,,0.00,121.0,meteohub,2014-12-25 16:05:00,
2014-12-25 11:10:00,68.0,63.3,30.17,North,0,7.0,15.0,85,0.00,,,0.00,132.0,meteohub,2014-12-25 16:10:00,
2014-12-25 11:15:00,68.0,63.3,30.16,North,0,8.0,13.0,85,0.00,,,0.00,153.0,meteohub,2014-12-25 16:15:00,
2014-12-25 11:20:00,68.2,63.1,30.16,North,0,11.0,13.0,84,0.00,,,0.00,186.0,meteohub,2014-12-25 16:20:00,
2014-12-25 11:25:00,68.4,63.3,30.16,North,0,15.0,15.0,84,0.00,,,0.00,218.0,meteohub,2014-12-25 16:25:00,
2014-12-25 11:30:00,68.4,63.3,30.15,North,0,9.0,16.0,84,0.00,,,0.00,234.0,meteohub,2014-12-25 16:30:00,
2014-12-25 11:35:00,68.5,63.5,30.15,North,0,8.0,16.0,84,0.00,,,0.00,216.0,meteohub,2014-12-25 16:35:00,
2014-12-25 11:40:00,68.7,63.7,30.15,North,0,12.0,16.0,84,0.00,,,0.00,269.0,meteohub,2014-12-25 16:40:00,
2014-12-25 11:45:00,69.1,63.7,30.15,North,0,9.0,14.0,83,0.00,,,0.00,216.0,meteohub,2014-12-25 16:45:00,
2014-12-25 11:50:00,69.1,63.7,30.14,North,0,17.0,17.0,83,0.00,,,0.00,274.0,meteohub,2014-12-25 16:50:00,
2014-12-25 11:55:00,69.3,63.9,30.14,North,0,14.0,17.0,83,0.00,,,0.00,257.0,meteohub,2014-12-25 16:55:00,
2014-12-25 12:00:00,69.3,63.9,30.14,North,0,11.0,17.0,83,0.00,,,0.00,287.0,meteohub,2014-12-25 17:00:00,
2014-12-25 12:05:00,69.4,64.0,30.14,North,0,14.0,17.0,83,0.00,,,0.00,257.0,meteohub,2014-12-25 17:05:00,
2014-12-25 12:10:00,69.4,63.7,30.14,North,0,9.0,17.0,82,0.00,,,0.00,241.0,meteohub,2014-12-25 17:10:00,
2014-12-25 12:15:00,69.4,63.7,30.14,North,0,9.0,17.0,82,0.00,,,0.00,220.0,meteohub,2014-12-25 17:15:00,
2014-12-25 12:20:00,69.4,63.7,30.14,North,0,8.0,16.0,82,0.00,,,0.00,183.0,meteohub,2014-12-25 17:20:00,
2014-12-25 12:25:00,69.4,63.7,30.14,North,0,11.0,14.0,82,0.00,,,0.00,153.0,meteohub,2014-12-25 17:25:00,
2014-12-25 12:30:00,69.4,63.7,30.14,North,0,7.0,14.0,82,0.00,,,0.00,141.0,meteohub,2014-12-25 17:30:00,
2014-12-25 12:35:00,69.3,63.5,30.14,North,0,11.0,13.0,82,0.00,,,0.00,130.0,meteohub,2014-12-25 17:35:00,
2014-12-25 12:40:00,69.1,63.0,30.14,North,0,10.0,15.0,81,0.00,,,0.00,121.0,meteohub,2014-12-25 17:40:00,
2014-12-25 12:45:00,68.9,63.1,30.14,North,0,10.0,15.0,82,0.00,,,0.00,91.0,meteohub,2014-12-25 17:45:00,
2014-12-25 12:50:00,68.7,63.0,30.14,North,0,10.0,15.0,82,0.00,,,0.00,123.0,meteohub,2014-12-25 17:50:00,
2014-12-25 12:55:00,68.7,63.3,30.14,North,0,6.0,15.0,83,0.00,,,0.00,135.0,meteohub,2014-12-25 17:55:00,
2014-12-25 13:00:00,68.7,63.0,30.13,North,0,10.0,14.0,82,0.00,,,0.00,171.0,meteohub,2014-12-25 18:00:00,
2014-12-25 13:05:00,68.5,63.1,30.13,North,0,6.0,15.0,83,0.00,,,0.00,234.0,meteohub,2014-12-25 18:05:00,
2014-12-25 13:10:00,68.7,63.0,30.13,North,0,14.0,15.0,82,0.00,,,0.00,353.0,meteohub,2014-12-25 18:10:00,
2014-12-25 13:15:00,69.1,63.0,30.12,North,0,8.0,14.0,81,0.00,,,0.00,707.0,meteohub,2014-12-25 18:15:00,
2014-12-25 13:20:00,69.6,62.4,30.12,North,0,7.0,16.0,78,0.00,,,0.00,534.0,meteohub,2014-12-25 18:20:00,
2014-12-25 13:25:00,70.2,62.2,30.11,North,0,10.0,16.0,76,0.00,,,0.00,596.0,meteohub,2014-12-25 18:25:00,
2014-12-25 13:30:00,70.5,62.2,30.11,North,0,11.0,17.0,75,0.00,,,0.00,503.0,meteohub,2014-12-25 18:30:00,
2014-12-25 13:35:00,70.7,62.1,30.11,North,0,10.0,17.0,74,0.00,,,0.00,485.0,meteohub,2014-12-25 18:35:00,
2014-12-25 13:40:00,71.1,63.1,30.12,North,0,5.0,17.0,76,0.00,,,0.00,383.0,meteohub,2014-12-25 18:40:00,
2014-12-25 13:45:00,71.2,63.7,30.12,North,0,8.0,17.0,77,0.00,,,0.00,410.0,meteohub,2014-12-25 18:45:00,
2014-12-25 13:50:00,71.2,63.0,30.12,North,0,10.0,16.0,75,0.00,,,0.00,369.0,meteohub,2014-12-25 18:50:00,
2014-12-25 13:55:00,71.2,63.0,30.12,North,0,10.0,15.0,75,0.00,,,0.00,352.0,meteohub,2014-12-25 18:55:00,
2014-12-25 14:00:00,71.2,63.0,30.12,North,0,13.0,15.0,75,0.00,,,0.00,378.0,meteohub,2014-12-25 19:00:00,
2014-12-25 14:05:00,71.4,62.2,30.12,North,0,6.0,15.0,73,0.00,,,0.00,336.0,meteohub,2014-12-25 19:05:00,
2014-12-25 14:10:00,71.2,60.6,30.12,North,0,10.0,15.0,69,0.00,,,0.00,315.0,meteohub,2014-12-25 19:10:00,
2014-12-25 14:15:00,71.2,60.6,30.12,North,0,11.0,15.0,69,0.00,,,0.00,330.0,meteohub,2014-12-25 19:15:00,
2014-12-25 14:20:00,71.2,60.6,30.12,North,0,11.0,15.0,69,0.00,,,0.00,288.0,meteohub,2014-12-25 19:20:00,
2014-12-25 14:25:00,71.2,60.1,30.12,North,0,12.0,14.0,68,0.00,,,0.00,360.0,meteohub,2014-12-25 19:25:00,
2014-12-25 14:30:00,71.2,58.5,30.12,North,0,10.0,14.0,64,0.00,,,0.00,371.0,meteohub,2014-12-25 19:30:00,
2014-12-25 14:35:00,71.2,57.9,30.12,North,0,11.0,18.0,63,0.00,,,0.00,253.0,meteohub,2014-12-25 19:35:00,
2014-12-25 14:40:00,71.2,58.5,30.12,North,0,8.0,18.0,64,0.00,,,0.00,290.0,meteohub,2014-12-25 19:40:00,
2014-12-25 14:45:00,71.1,57.4,30.12,North,0,9.0,16.0,62,0.00,,,0.00,221.0,meteohub,2014-12-25 19:45:00,
2014-12-25 14:50:00,71.1,57.4,30.12,North,0,8.0,16.0,62,0.00,,,0.00,271.0,meteohub,2014-12-25 19:50:00,
2014-12-25 14:55:00,71.2,58.5,30.12,North,0,7.0,16.0,64,0.00,,,0.00,260.0,meteohub,2014-12-25 19:55:00,
2014-12-25 15:00:00,71.4,57.7,30.13,North,0,4.0,16.0,62,0.00,,,0.00,243.0,meteohub,2014-12-25 20:00:00,
2014-12-25 15:05:00,71.4,57.2,30.12,North,0,9.0,13.0,61,0.00,,,0.00,241.0,meteohub,2014-12-25 20:05:00,
2014-12-25 15:10:00,71.4,57.7,30.12,North,0,7.0,13.0,62,0.00,,,0.00,153.0,meteohub,2014-12-25 20:10:00,
2014-12-25 15:15:00,71.2,57.0,30.12,North,0,7.0,13.0,61,0.00,,,0.00,165.0,meteohub,2014-12-25 20:15:00,
2014-12-25 15:20:00,71.2,57.9,30.12,North,0,8.0,14.0,63,0.00,,,0.00,234.0,meteohub,2014-12-25 20:20:00,
2014-12-25 15:25:00,71.2,57.6,30.12,North,0,9.0,14.0,62,0.00,,,0.00,174.0,meteohub,2014-12-25 20:25:00,
2014-12-25 15:30:00,71.2,57.6,30.13,North,0,7.0,13.0,62,0.00,,,0.00,178.0,meteohub,2014-12-25 20:30:00,
2014-12-25 15:35:00,71.1,57.4,30.13,North,0,13.0,15.0,62,0.00,,,0.00,114.0,meteohub,2014-12-25 20:35:00,
2014-12-25 15:40:00,70.9,57.2,30.13,North,0,9.0,16.0,62,0.00,,,0.00,176.0,meteohub,2014-12-25 20:40:00,
2014-12-25 15:45:00,70.9,57.2,30.12,North,0,8.0,16.0,62,0.00,,,0.00,127.0,meteohub,2014-12-25 20:45:00,
2014-12-25 15:50:00,70.9,57.7,30.13,North,0,16.0,17.0,63,0.00,,,0.00,132.0,meteohub,2014-12-25 20:50:00,
2014-12-25 15:55:00,70.5,56.8,30.13,North,0,9.0,17.0,62,0.00,,,0.00,128.0,meteohub,2014-12-25 20:55:00,
2014-12-25 16:00:00,70.5,57.4,30.12,North,0,7.0,17.0,63,0.00,,,0.00,114.0,meteohub,2014-12-25 21:00:00,
2014-12-25 16:05:00,70.3,57.6,30.12,North,0,8.0,16.0,64,0.00,,,0.00,113.0,meteohub,2014-12-25 21:05:00,
2014-12-25 16:10:00,70.3,57.6,30.13,North,0,11.0,13.0,64,0.00,,,0.00,90.0,meteohub,2014-12-25 21:10:00,
2014-12-25 16:15:00,70.3,57.6,30.13,North,0,4.0,14.0,64,0.00,,,0.00,69.0,meteohub,2014-12-25 21:15:00,
2014-12-25 16:20:00,70.2,57.9,30.13,North,0,8.0,14.0,65,0.00,,,0.00,56.0,meteohub,2014-12-25 21:20:00,
2014-12-25 16:25:00,70.2,57.9,30.13,North,0,9.0,14.0,65,0.00,,,0.00,72.0,meteohub,2014-12-25 21:25:00,
2014-12-25 16:30:00,70.2,57.9,30.13,North,0,6.0,13.0,65,0.00,,,0.00,60.0,meteohub,2014-12-25 21:30:00,
2014-12-25 16:35:00,70.0,58.1,30.13,North,0,1.0,13.0,66,0.00,,,0.00,42.0,meteohub,2014-12-25 21:35:00,
2014-12-25 16:41:00,70.0,57.7,30.14,North,0,10.0,11.0,65,0.00,,,0.00,40.0,meteohub,2014-12-25 21:41:00,
2014-12-25 16:46:00,70.0,57.2,30.14,North,0,6.0,13.0,64,0.00,,,0.00,35.0,meteohub,2014-12-25 21:46:00,
2014-12-25 16:51:00,69.8,57.6,30.14,North,0,8.0,13.0,65,0.00,,,0.00,37.0,meteohub,2014-12-25 21:51:00,
2014-12-25 16:56:00,69.8,57.6,30.14,North,0,10.0,14.0,65,0.00,,,0.00,26.0,meteohub,2014-12-25 21:56:00,
2014-12-25 17:01:00,69.6,57.4,30.14,North,0,6.0,14.0,65,0.00,,,0.00,18.0,meteohub,2014-12-25 22:01:00,
2014-12-25 17:06:00,69.6,57.7,30.14,North,0,7.0,14.0,66,0.00,,,0.00,14.0,meteohub,2014-12-25 22:06:00,
2014-12-25 17:11:00,69.6,58.1,30.15,North,0,4.0,14.0,67,0.00,,,0.00,12.0,meteohub,2014-12-25 22:11:00,
2014-12-25 17:16:00,69.4,57.9,30.15,North,0,11.0,14.0,67,0.00,,,0.00,9.0,meteohub,2014-12-25 22:16:00,
2014-12-25 17:21:00,69.4,58.5,30.15,North,0,7.0,13.0,68,0.00,,,0.00,9.0,meteohub,2014-12-25 22:21:00,
2014-12-25 17:26:00,69.4,58.8,30.15,North,0,3.0,13.0,69,0.00,,,0.00,9.0,meteohub,2014-12-25 22:26:00,
2014-12-25 17:31:00,69.3,59.0,30.15,North,0,2.0,12.0,70,0.00,,,0.00,5.0,meteohub,2014-12-25 22:31:00,
2014-12-25 17:36:00,69.3,59.0,30.15,North,0,3.0,10.0,70,0.00,,,0.00,0.0,meteohub,2014-12-25 22:36:00,
2014-12-25 17:41:00,69.3,59.0,30.14,North,0,5.0,8.0,70,0.00,,,0.00,0.0,meteohub,2014-12-25 22:41:00,
2014-12-25 17:46:00,69.1,59.4,30.14,North,0,4.0,9.0,71,0.00,,,0.00,0.0,meteohub,2014-12-25 22:46:00,